Time,TemperatureF,DewpointF,PressureIn,WindDirection,WindDirectionDegrees,WindSpeedMPH,WindSpeedGustMPH,Humidity,HourlyPrecipIn,Conditions,Clouds,dailyrainin,SoftwareType,DateUTC
2013-06-01 00:32:00,69.0,43.0,29.73,NNE,12,0.0,-999.0,39,-99.99,,,-99.99,,2013-06-01 07:32:00,
2013-06-01 03:33:00,65.0,44.0,29.71,NNW,345,0.0,-999.0,47,-99.99,,,-99.99,,2013-06-01 10:33:00,
2013-06-01 03:52:00,65.0,44.0,29.71,NNW,345,0.0,-999.0,47,-99.99,,,-99.99,,2013-06-01 10:52:00,
2013-06-01 04:02:00,65.0,44.0,29.71,NNW,345,0.0,-999.0,47,-99.99,,,-99.99,,2013-06-01 11:02:00,
2013-06-01 06:32:00,61.0,45.0,29.69,NE,42,1.0,-999.0,55,-99.99,,,-99.99,,2013-06-01 13:32:00,
2013-06-01 06:42:00,61.0,45.0,29.69,NE,42,1.0,-999.0,55,-99.99,,,-99.99,,2013-06-01 13:42:00,
2013-06-01 06:52:00,61.0,45.0,29.69,NE,42,1.0,-999.0,55,-99.99,,,-99.99,,2013-06-01 13:52:00,
2013-06-01 07:01:00,61.0,45.0,29.69,NE,42,1.0,-999.0,55,-99.99,,,-99.99,,2013-06-01 14:01:00,
2013-06-01 09:33:00,70.0,48.0,29.71,West,277,3.0,-999.0,45,-99.99,,,-99.99,,2013-06-01 16:33:00,
2013-06-01 09:42:00,70.0,48.0,29.71,West,277,3.0,-999.0,45,-99.99,,,-99.99,,2013-06-01 16:42:00,
2013-06-01 09:52:00,70.0,48.0,29.71,West,277,3.0,-999.0,45,-99.99,,,-99.99,,2013-06-01 16:52:00,
2013-06-01 10:02:00,70.0,48.0,29.71,West,277,3.0,-999.0,45,-99.99,,,-99.99,,2013-06-01 17:02:00,
2013-06-01 12:32:00,89.0,40.0,29.67,WSW,250,6.0,-999.0,18,-99.99,,,-99.99,,2013-06-01 19:32:00,
2013-06-01 12:42:00,89.0,40.0,29.67,WSW,250,6.0,-999.0,18,-99.99,,,-99.99,,2013-06-01 19:42:00,
2013-06-01 12:52:00,89.0,40.0,29.67,WSW,250,6.0,-999.0,18,-99.99,,,-99.99,,2013-06-01 19:52:00,
2013-06-01 13:01:00,89.0,40.0,29.67,WSW,250,6.0,-999.0,18,-99.99,,,-99.99,,2013-06-01 20:01:00,
2013-06-01 15:33:00,94.0,41.0,29.64,West,275,5.0,-999.0,16,-99.99,,,-99.99,,2013-06-01 22:33:00,
2013-06-01 15:42:00,94.0,41.0,29.64,West,275,5.0,-999.0,16,-99.99,,,-99.99,,2013-06-01 22:42:00,
2013-06-01 15:53:00,94.0,41.0,29.64,West,275,5.0,-999.0,16,-99.99,,,-99.99,,2013-06-01 22:53:00,
2013-06-01 16:02:00,94.0,41.0,29.64,West,275,5.0,-999.0,16,-99.99,,,-99.99,,2013-06-01 23:02:00,
2013-06-01 18:32:00,92.0,44.0,29.59,WSW,254,4.0,-999.0,19,-99.99,,,-99.99,,2013-06-02 01:32:00,
2013-06-01 18:42:00,92.0,44.0,29.59,WSW,254,4.0,-999.0,19,-99.99,,,-99.99,,2013-06-02 01:42:00,
2013-06-01 18:52:00,92.0,44.0,29.59,WSW,254,4.0,-999.0,19,-99.99,,,-99.99,,2013-06-02 01:52:00,
2013-06-01 19:01:00,92.0,44.0,29.59,WSW,254,4.0,-999.0,19,-99.99,,,-99.99,,2013-06-02 02:01:00,